Cloud_Cover
100 97 73 100 77 90 100 99 100 100 100 100 100 100 100 100 100 100 100 100 100 100
94 100 100 100 71 88 31 72 100 100 100 100 99 100 100 100 100 100 100 100 100 100
100 99 91 100 100 100 100 98 100 100 100 100 100 100 98 100 100 100 100 100 100 100
100 100 100 100 100 100 100 100 100 100 100 100 100 100 100 98 100 100 100 100 100 100
100 100 100 100 100 100 100 100 100 100 100 100 100 100 100 100 100 100 100 100 100 100
100 100 100 100 100 100 100 100 100 100 100 100 100 100 100 100 100 100 100 100 100 100
100 100 100 100 100 100 100 100 100 100 100 100 100 100 100 100 100 100 100 100 100 100
100 100 100 100 100 100 100 100 100 100 100 100 100 100 100 100 100 100 100 100 100 100
100 100 100 100 100 100 100 100 100 100 100 100 100 100 100 100 100 100 100 100 100 100
100 100 100 100 100 100 100 100 100 100 100 100 100 100 100 100 100 100 100 100 100 100
100 100 100 100 100 100 100 100 100 99 100 100 100 100 100 100 100 100 100 100 100 100
100 100 100 100 100 100 100 100 100 100 61 78 93 98 99 100 100 100 100 100 100 100
100 100 100 100 100 100 100 100 82 31 16 26 9 11 85 98 95 46 10 79 99 96
100 100 100 100 94 84 99 95 100 83 40 47 10 5 83 100 100 82 15 88 99 93